Regional Weather Roundup
Issued by NWS

Home | Current Version | Previous Version | Graphics & Text | Print | Product List | Glossary On
Versions: 1 2 3 4 5 6 7 8 9 10 11 12 13 14 15 16 17 18 19 20 21 22 23 24 25 26 27 28 29 30 31 32 33 34 35 36 37 38 39 40 41 42 43 44 45 46 47 48 49 50
000
ASUS43 KDTX 061001
RWRMI
MICHIGAN HOURLY REGIONAL WEATHER ROUNDUP
NATIONAL WEATHER SERVICE DETROIT/PONTIAC MI
600 AM EDT WED MAY 06 2015

NOTE: "FAIR" INDICATES FEW OR NO CLOUDS BELOW 12,000 FEET WITH NO
SIGNIFICANT WEATHER AND/OR OBSTRUCTION TO VISIBILITY.

MIZ047>049-052>055-059>063-066>070-074>076-081>083-061100-
SOUTHEAST LOWER MICHIGAN

CITY           SKY/WX    TMP DP  RH WIND       PRES   REMARKS
ADRIAN         FOG       51  51 100 E6        30.24F VSB 1/4
ALMA           CLOUDY    50  49  95 NE3       30.25F FOG
ANN ARBOR      CLOUDY    51  49  92 NE3       30.24S FOG
BAD AXE        MOCLDY    37  35  91 CALM      30.28S
CARO           CLOUDY    45  44  97 CALM      30.27S FOG
DETROIT CITY   CLOUDY    50  47  89 CALM      30.26R
DETROIT        CLOUDY    52  50  93 CALM      30.25S FOG
FLINT          CLOUDY    52  45  77 E3        30.26R
GROSSE ILE     CLOUDY    52  48  87 NE5       30.24S FOG
HILLSDALE      FOG       52  52 100 E6        30.23S VSB<1/4
HOWELL         CLOUDY    51  50  98 E5        30.25R FOG

CITY           SKY/WX    TMP DP  RH WIND       PRES   REMARKS
JACKSON        CLOUDY    51  50  96 E5        30.23S FOG
LAMBERTVILLE   CLOUDY    52  50  93 E3        30.24S FOG
LANSING        CLOUDY    52  50  93 E5        30.24F FOG
LAPEER         CLOUDY    46  46 100 CALM      30.26S
MASON          CLOUDY    51  49  94 E3        30.24S FOG
MONROE         CLOUDY    52  52 100 NE3       30.23S FOG
PONTIAC        CLOUDY    50  45  83 E5        30.24S
PORT HOPE        N/A     42  38  85 E5        30.26F
PORT HURON     CLOUDY    45  43  93 CALM      30.26F
TRI CITIES     CLOUDY    50  47  89 NE5       30.27S
MIDLAND        CLOUDY    47  45  95 CALM      30.26S
TROY           CLOUDY    51  47  86 NE3       30.27S
SAGINAW HB     CLOUDY    46  46 100 CALM      30.26S
$$
MIZ043>046-050>051-056>058-064>065-071>073-077>080-061100-
SOUTHWEST LOWER MICHIGAN

CITY           SKY/WX    TMP DP  RH WIND       PRES   REMARKS
BATTLE CREEK   CLOUDY    52  51  97 SE5       30.23S FOG
BENTON HARBOR  FOG       52  52 100 E7        30.20S VSB 3/4
BIG RAPIDS     LGT RAIN  50  45  81 SE7       30.22F
COLDWATER      FOG       52  51  99 E5        30.22S VSB 1/2
FREMONT        FAIR      51  47  88 E6        30.21F
HOLLAND        CLOUDY    53  51  93 E9        30.21F FOG
GRAND RAPIDS   CLOUDY    53  50  89 E7        30.23S FOG
IONIA          LGT RAIN  52  49  87 E6        30.23F
KALAMAZOO      FOG       52  50  93 E3        30.22S VSB 1/2
LUDINGTON      CLOUDY    51  43  74 CALM      30.22F
MARSHALL       FOG       51  50  99 CALM      30.23S VSB 3/4
MOUNT PLEASANT CLOUDY    47  45  91 NE3       30.25S
MUSKEGON       CLOUDY    53  49  86 E12       30.21F
SOUTH HAVEN    CLOUDY    52  51  96 SE3       30.20F FOG
$$
MIZ016>042-061100-
NORTHERN LOWER MICHIGAN

CITY           SKY/WX    TMP DP  RH WIND       PRES   REMARKS
ALPENA         PTCLDY    32  30  92 CALM      30.28F
BEAVER ISLAND  PTCLDY    40  34  79 SE3       30.25S
BELLAIRE       PTCLDY    39  36  90 CALM      30.26S
CADILLAC       CLOUDY    47  39  71 NE3       30.23S
CHARLEVOIX     PTCLDY    45  36  69 SE5       30.28S
FRANKFORT      MOCLDY    44  34  66 CALM      30.22F
GAYLORD        PTCLDY    37  32  82 CALM      30.26S
GRAYLING       MOCLDY    33  30  88 CALM      30.27S
HARBOR SPRINGS PTCLDY    40  36  86 NE6       30.26S
HOUGHTON LAKE  CLOUDY    40  38  93 E5        30.26F
MANISTEE       MOCLDY    50  36  57 SE3       30.24R
OSCODA         FOG       33  33 100 CALM      30.28S VSB 1/2
PELLSTON       CLEAR     30  28  92 CALM      30.27S
ROGERS CITY    PTCLDY    40  39  96 S3        30.28S
TRAVERSE CITY  MOCLDY    40  35  83 CALM      30.23F
$$
MIZ007>008-015-061100-
EASTERN UPPER MICHIGAN

CITY           SKY/WX    TMP DP  RH WIND       PRES   REMARKS
KINROSS        PTCLDY    39  34  81 CALM      30.27R
MACKINAC ISLAN CLEAR     47  38  70 S7        30.26S
NEWBERRY       CLEAR     45  29  53 S10       30.24F
S. S. MARIE    CLEAR     40  31  70 E3        30.27S
MUNISING         N/A     39  31  72 S3        30.22F
$$
MIZ004>006-011>014-085-061100-
CENTRAL UPPER MICHIGAN

CITY           SKY/WX    TMP DP  RH WIND       PRES   REMARKS
MANISTIQUE     PTCLDY    38  31  77 CALM      30.24S
ESCANABA       CLOUDY    37  34  87 CALM      30.22S
MENOMINEE      CLOUDY    46  37  71 CALM      30.21F
SAWYER-GWINN   PTCLDY    32  26  80 CALM      30.22F
$$
MIZ001>003-009>011-084-061100-
WESTERN UPPER MICHIGAN

CITY           SKY/WX    TMP DP  RH WIND       PRES   REMARKS
IRON MOUNTAIN  MOCLDY    40  34  79 CALM      30.21S
HOUGHTON       PTCLDY    44  29  55 CALM      30.19S
COPPER HARBOR    N/A     53  26  35 SW13G20   30.18S
IRONWOOD       PTCLDY    54  27  35 SE3       30.15S
$$

ABBREVIATIONS USED IN REMARKS
   TC - TEMPERATURE IN CELSIUS
  WCI - WIND CHILL INDEX
   HX - HEAT INDEX
  VSB - VISIBILITY



USA.gov is the U.S. government's official web portal to all federal, state and local government web resources and services.